Flag for U.S.A. Weather past 2 weeks in Knoxville, Tennessee, U.S.A.

61 °F

Light rain. Fog.

Feels Like: 61 °F
Forecast: 57 / 69 °F
Wind: 8 mph from North

Location: McGhee Tyson Airport

Current Time: Oct 10, 2015 at 12:07:51 PM

Latest Report: Oct 10, 2015 at 10:53 AM

Visibility: 3 mi

Pressure: 30.03 "Hg

Humidity: 93%

Dew point: 59 °F

Location of KnoxvilleLocation

Historic Weather in Knoxville — Graph


Knoxville temperature yesterday

Maximum temperature yesterday: 78 °F (at 2:53 PM)
Minimum temperature yesterday: 64 °F (at 7:53 PM)
Average temperature yesterday: 69 °F

Past Weeks' High & Low Weather Summary

High83 °F (Sep 28, 3:53 PM)100% (Sep 25, 11:00 AM)30.14 "Hg (Sep 25, 11:00 AM)
Low55 °F (Oct 3, 6:53 AM)42% (Oct 7, 4:53 PM)29.72 "Hg (Oct 3, 4:53 PM)
Average67 °F82%29.95 "Hg
* Reported Sep 25 11:00 AM — Oct 10 10:53 AM, Knoxville, Weather by CustomWeather, © 2015

Note: Actual official high and low records may vary slightly from our data, if they occured in-between our weather recording intervals... More about our weather records


Knoxville weather history for previous 24 hours

Time TempWeatherWind HumidityBarometerVisibility
10:53 AM
Sat, Oct 10
61 °FLight rain. Fog.8 mph93%30.03 "Hg3 mi
9:53 AM61 °FFog.6 mph93%30.01 "Hg3 mi
8:53 AM61 °FLight rain. Fog.9 mph93%30.00 "Hg3 mi
7:53 AM62 °FRain. Fog.6 mph93%29.99 "Hg5 mi
6:53 AM61 °FLight rain. Mostly cloudy.3 mph97%29.98 "Hg8 mi
5:53 AM61 °FLight rain. Mostly cloudy.7 mph97%29.98 "Hg9 mi
4:53 AM62 °FLight rain. Low clouds.6 mph93%29.98 "Hg7 mi
3:53 AM63 °FLight rain. Low clouds.6 mph93%29.99 "Hg7 mi
2:53 AM62 °FLight rain. Mostly cloudy.3 mph96%30.00 "Hg9 mi
1:53 AM63 °FRain. Mostly cloudy.6 mph93%30.01 "Hg7 mi
12:53 AM63 °FLight rain. Mostly cloudy.7 mph97%30.02 "Hg8 mi
11:53 PM
Fri, Oct 9
66 °FLight rain. Mostly cloudy.6 mph87%30.03 "Hg10 mi
10:53 PM64 °FLight rain. Partly cloudy.7 mph94%30.03 "Hg10 mi
9:53 PM64 °FLight rain. Mostly cloudy.7 mph94%30.03 "Hg7 mi
8:53 PM64 °FRain. Fog.7 mph94%30.03 "Hg4 mi
7:53 PM64 °FThunderstorms. Fog.6 mph94%30.02 "Hg3 mi
6:53 PM74 °FThunderstorms. More clouds than sun.6 mph69%29.97 "Hg10 mi
5:53 PM76 °FMore clouds than sun.12 mph64%29.96 "Hg10 mi
4:53 PM77 °FBroken clouds.16 mph62%29.96 "Hg10 mi
3:53 PM78 °FBroken clouds.14 mph60%29.98 "Hg10 mi
2:53 PM78 °FBroken clouds.12 mph56%30.01 "Hg10 mi
1:53 PM76 °FCloudy.14 mph64%30.04 "Hg10 mi
12:53 PM76 °FPartly sunny.12 mph67%30.07 "Hg10 mi
Weather by CustomWeather, © 2015

See weather overviewHow to use our weather pages